This is the latest recevied weather packets stored in our database for station/object KF7PIZ. If no packets are shown the sender has not sent any weather packets the latest 10 day(s).
| Time | Temp. | Humidity | Pressure | Rain* | Wind** | Luminosity | Snow |
|---|---|---|---|---|---|---|---|
| 1777318987 | 18.33° C | 25% | 1015.4 hPa | 0 mm | - | 862 W/m² | - |
| 1777318684 | 17.78° C | 28% | 1015.4 hPa | 0 mm | - | 815 W/m² | - |
| 1777318380 | 16.67° C | 29% | 1015.4 hPa | 0 mm | - | 803 W/m² | - |
| 1777318077 | 14.44° C | 37% | 1015.4 hPa | 0 mm | - | 803 W/m² | - |
| 1777317774 | 15° C | 28% | 1015.5 hPa | 0 mm | - | 769 W/m² | - |
| 1777317471 | 15° C | 29% | 1015.4 hPa | 0 mm | - | 686 W/m² | - |
| 1777317168 | 15° C | 36% | 1015.6 hPa | 0 mm | - | 617 W/m² | - |
| 1777316863 | 15° C | 31% | 1015.6 hPa | 0 mm | - | 614 W/m² | - |
| 1777316561 | 16.11° C | 36% | 1016 hPa | 0 mm | - | 639 W/m² | - |
| 1777316257 | 14.44° C | 33% | 1015.7 hPa | 0 mm | - | 642 W/m² | - |
| 1777315954 | 12.78° C | 32% | 1016 hPa | 0 mm | - | 667 W/m² | - |
| 1777315653 | 13.89° C | 34% | 1016 hPa | 0 mm | - | 667 W/m² | - |
| 1777315351 | 13.33° C | 37% | 1015.8 hPa | 0 mm | - | 655 W/m² | - |
| 1777315049 | 14.44° C | 34% | 1015.7 hPa | 0 mm | - | 647 W/m² | - |
| 1777314749 | 12.22° C | 38% | 1015.6 hPa | 0 mm | - | 683 W/m² | - |
| 1777314446 | 12.22° C | 37% | 1015.6 hPa | 0 mm | - | 688 W/m² | - |
| 1777314142 | 12.78° C | 39% | 1015.7 hPa | 0 mm | - | 729 W/m² | - |
| 1777313841 | 13.33° C | 35% | 1015.7 hPa | 0 mm | - | 759 W/m² | - |
| 1777313537 | 13.33° C | 38% | 1015.6 hPa | 0 mm | - | 687 W/m² | - |
| 1777313235 | 12.78° C | 38% | 1015.7 hPa | 0 mm | - | 744 W/m² | - |
| 1777312931 | 11.11° C | 42% | 1015.5 hPa | 0 mm | - | 718 W/m² | - |
| 1777312627 | 11.11° C | 41% | 1015.8 hPa | 0 mm | - | 749 W/m² | - |
| 1777312325 | 11.11° C | 39% | 1015.6 hPa | 0 mm | - | 735 W/m² | - |
| 1777312022 | 11.11° C | 38% | 1015.7 hPa | 0 mm | - | 757 W/m² | - |
| 1777311718 | 12.22° C | 38% | 1015.8 hPa | 0 mm | - | 765 W/m² | - |
* Rain latest hour (hover to see other rain measurements)
** Current wind speed in m/s (hover to see current wind gust speed)